カタログに戻る

NOAA 16 DEB

運用中SSO
NORAD 41210·DEBRIS·🇺🇸 United States

打ち上げ Sep 21, 2000 から Vandenberg Space Force Base

Loading…

次のパス (今後24時間)

TLE

最新Source: Space-Track

元期: Sep 14, 2026, 08:46 UTC

1 41210U 00055DP  26257.36591668  .00001645  00000-0  75934-3 0  9991
2 41210  98.6745 309.0723 0022205 222.2337 137.7131 14.22207420555456

AllMySatでNOAA 16 DEBをリアルタイム追跡

Download on the App Store